N602OM KIFP-KVGT

Flight info

Callsign N602OM
Flight time 0h 36m
Altitude VFR
Route
Aircraft C172/L-DOV/C

Departure

Time 2026-04-29 23:16
Airport Laughlin Bullhead International Airport (KIFP)

Arrival

Time 2026-04-29 23:53
Airport North Las Vegas Airport (KVGT)
Time Latitude Longitude Altitude Speed Heading
2026-04-29 23:16 35.25958 -114.58847 5281 ft 104 kts
2026-04-29 23:16 35.26676 -114.58792 5424 ft 103 kts
2026-04-29 23:17 35.27405 -114.58732 5486 ft 111 kts
2026-04-29 23:17 35.28206 -114.58661 5488 ft 119 kts
2026-04-29 23:17 35.29049 -114.58588 5483 ft 124 kts
2026-04-29 23:17 35.29621 -114.58538 5488 ft 125 kts
2026-04-29 23:18 35.30494 -114.58459 5498 ft 126 kts
2026-04-29 23:18 35.31373 -114.58382 5495 ft 127 kts
2026-04-29 23:18 35.32254 -114.58307 5492 ft 127 kts
2026-04-29 23:18 35.33143 -114.58230 5452 ft 129 kts
2026-04-29 23:19 35.34035 -114.58150 5445 ft 128 kts
2026-04-29 23:19 35.34922 -114.58123 5443 ft 127 kts 360°
2026-04-29 23:19 35.35796 -114.58168 5443 ft 125 kts 360°
2026-04-29 23:19 35.36666 -114.58215 5443 ft 125 kts 359°
2026-04-29 23:20 35.37526 -114.58314 5437 ft 124 kts 348°
2026-04-29 23:20 35.38352 -114.58587 5446 ft 122 kts 347°
2026-04-29 23:20 35.39162 -114.58851 5439 ft 122 kts 348°
2026-04-29 23:20 35.39983 -114.59120 5452 ft 122 kts 347°
2026-04-29 23:21 35.40811 -114.59386 5457 ft 123 kts 347°
2026-04-29 23:21 35.41639 -114.59658 5453 ft 123 kts 348°
2026-04-29 23:21 35.42464 -114.59938 5453 ft 124 kts 347°
2026-04-29 23:21 35.43294 -114.60212 5450 ft 124 kts 348°
2026-04-29 23:22 35.44122 -114.60485 5455 ft 123 kts 347°
2026-04-29 23:22 35.44952 -114.60761 5456 ft 124 kts 347°
2026-04-29 23:22 35.45782 -114.61037 5453 ft 123 kts 347°
2026-04-29 23:22 35.46613 -114.61308 5453 ft 124 kts 347°
2026-04-29 23:23 35.47448 -114.61575 5453 ft 123 kts 348°
2026-04-29 23:23 35.48263 -114.61841 5455 ft 123 kts 348°
2026-04-29 23:23 35.49082 -114.62116 5461 ft 122 kts 347°
2026-04-29 23:23 35.49903 -114.62390 5458 ft 122 kts 348°
2026-04-29 23:24 35.50727 -114.62659 5463 ft 123 kts 348°
2026-04-29 23:24 35.51557 -114.62929 5462 ft 123 kts 347°
2026-04-29 23:24 35.52383 -114.63204 5465 ft 124 kts 347°
2026-04-29 23:24 35.53218 -114.63477 5458 ft 125 kts 347°
2026-04-29 23:25 35.54044 -114.63748 5461 ft 122 kts 347°
2026-04-29 23:25 35.54862 -114.64017 5467 ft 122 kts 348°
2026-04-29 23:25 35.55685 -114.64290 5469 ft 122 kts 347°
2026-04-29 23:25 35.56510 -114.64559 5478 ft 124 kts 347°
2026-04-29 23:26 35.57330 -114.64807 5477 ft 123 kts 347°
2026-04-29 23:26 35.58159 -114.65050 5477 ft 123 kts 348°
2026-04-29 23:26 35.58994 -114.65299 5480 ft 124 kts 348°
2026-04-29 23:26 35.59822 -114.65545 5475 ft 121 kts 347°
2026-04-29 23:27 35.60641 -114.65789 5467 ft 122 kts 347°
2026-04-29 23:27 35.61465 -114.66033 5469 ft 122 kts 348°
2026-04-29 23:27 35.62286 -114.66273 5470 ft 120 kts 347°
2026-04-29 23:27 35.63106 -114.66513 5469 ft 122 kts 348°
2026-04-29 23:28 35.63927 -114.66750 5475 ft 121 kts 347°
2026-04-29 23:28 35.64749 -114.66988 5479 ft 121 kts 347°
2026-04-29 23:28 35.65567 -114.67230 5485 ft 120 kts 347°
2026-04-29 23:28 35.66376 -114.67469 5483 ft 120 kts 347°
2026-04-29 23:29 35.67196 -114.67712 5477 ft 122 kts 347°
2026-04-29 23:29 35.68025 -114.67956 5476 ft 122 kts 347°
2026-04-29 23:29 35.68850 -114.68195 5475 ft 121 kts 347°
2026-04-29 23:29 35.69666 -114.68433 5481 ft 120 kts 348°
2026-04-29 23:30 35.70485 -114.68676 5479 ft 122 kts 347°
2026-04-29 23:30 35.71308 -114.68920 5482 ft 120 kts 348°
2026-04-29 23:30 35.72117 -114.69161 5480 ft 119 kts 347°
2026-04-29 23:30 35.72928 -114.69395 5480 ft 121 kts 347°
2026-04-29 23:31 35.73714 -114.69720 5475 ft 121 kts 335°
2026-04-29 23:31 35.74484 -114.70134 5477 ft 121 kts 339°
2026-04-29 23:31 35.75266 -114.70542 5476 ft 122 kts 339°
2026-04-29 23:31 35.76035 -114.70948 5472 ft 118 kts 339°
2026-04-29 23:32 35.76795 -114.71351 5468 ft 119 kts 338°
2026-04-29 23:32 35.77561 -114.71754 5470 ft 121 kts 338°
2026-04-29 23:32 35.78335 -114.72161 5475 ft 121 kts 339°
2026-04-29 23:32 35.79113 -114.72564 5476 ft 121 kts 339°
2026-04-29 23:33 35.79896 -114.72971 5472 ft 122 kts 338°
2026-04-29 23:33 35.80671 -114.73376 5469 ft 120 kts 338°
2026-04-29 23:33 35.81439 -114.73778 5472 ft 119 kts 339°
2026-04-29 23:33 35.82203 -114.74173 5455 ft 119 kts 339°
2026-04-29 23:34 35.82960 -114.74575 5455 ft 118 kts 338°
2026-04-29 23:34 35.83725 -114.74977 5454 ft 120 kts 339°
2026-04-29 23:34 35.84494 -114.75383 5452 ft 121 kts 339°
2026-04-29 23:34 35.85272 -114.75794 5458 ft 122 kts 338°
2026-04-29 23:35 35.86053 -114.76199 5475 ft 121 kts 339°
2026-04-29 23:35 35.86820 -114.76595 5478 ft 118 kts 338°
2026-04-29 23:35 35.87586 -114.77000 5479 ft 120 kts 338°
2026-04-29 23:35 35.88360 -114.77405 5475 ft 121 kts 338°
2026-04-29 23:36 35.89131 -114.77811 5478 ft 120 kts 338°
2026-04-29 23:36 35.89891 -114.78219 5476 ft 118 kts 338°
2026-04-29 23:36 35.90644 -114.78619 5465 ft 118 kts 338°
2026-04-29 23:36 35.91401 -114.79016 5464 ft 119 kts 338°
2026-04-29 23:37 35.92157 -114.79412 5464 ft 120 kts 338°
2026-04-29 23:37 35.92927 -114.79813 5465 ft 119 kts 339°
2026-04-29 23:37 35.93688 -114.80213 5462 ft 118 kts 338°
2026-04-29 23:37 35.94441 -114.80619 5467 ft 117 kts 338°
2026-04-29 23:38 35.95195 -114.81023 5461 ft 119 kts 339°
2026-04-29 23:38 35.95953 -114.81430 5461 ft 119 kts 338°
2026-04-29 23:38 35.96711 -114.81841 5463 ft 118 kts 338°
2026-04-29 23:38 35.97468 -114.82249 5465 ft 120 kts 338°
2026-04-29 23:39 35.98246 -114.82648 5463 ft 122 kts 338°
2026-04-29 23:39 35.99033 -114.83034 5467 ft 121 kts 338°
2026-04-29 23:39 35.99808 -114.83408 5460 ft 120 kts 338°
2026-04-29 23:39 36.00570 -114.83780 5472 ft 117 kts 338°
2026-04-29 23:40 36.01337 -114.84157 5470 ft 120 kts 339°
2026-04-29 23:40 36.02122 -114.84540 5467 ft 122 kts 339°
2026-04-29 23:40 36.02913 -114.84924 5472 ft 122 kts 339°
2026-04-29 23:40 36.03706 -114.85309 5471 ft 122 kts 338°
2026-04-29 23:41 36.04495 -114.85687 5468 ft 122 kts 338°
2026-04-29 23:41 36.05290 -114.86071 5470 ft 123 kts 339°
2026-04-29 23:41 36.05997 -114.86648 5465 ft 122 kts 313°
2026-04-29 23:41 36.06506 -114.87476 5476 ft 120 kts 306°
2026-04-29 23:42 36.06813 -114.88417 5477 ft 121 kts 274°
2026-04-29 23:42 36.06863 -114.89445 5401 ft 122 kts 277°
2026-04-29 23:42 36.06925 -114.90469 5249 ft 118 kts 277°
2026-04-29 23:42 36.06981 -114.91467 5094 ft 115 kts 276°
2026-04-29 23:43 36.07038 -114.92442 4949 ft 114 kts 276°
2026-04-29 23:43 36.07090 -114.93410 4800 ft 111 kts 278°
2026-04-29 23:43 36.07266 -114.94339 4650 ft 111 kts 287°
2026-04-29 23:43 36.07463 -114.95252 4497 ft 109 kts 287°
2026-04-29 23:44 36.07658 -114.96156 4347 ft 109 kts 287°
2026-04-29 23:44 36.07863 -114.97073 4233 ft 111 kts 288°
2026-04-29 23:44 36.08069 -114.98004 4091 ft 112 kts 288°
2026-04-29 23:44 36.08279 -114.98935 3970 ft 113 kts 288°
2026-04-29 23:45 36.08591 -114.99815 3859 ft 111 kts 297°
2026-04-29 23:45 36.08917 -115.00653 3870 ft 107 kts 297°
2026-04-29 23:45 36.09236 -115.01469 3870 ft 104 kts 297°
2026-04-29 23:45 36.09541 -115.02271 3872 ft 102 kts 297°
2026-04-29 23:46 36.09862 -115.03052 3877 ft 101 kts 302°
2026-04-29 23:46 36.10199 -115.03815 3876 ft 101 kts 301°
2026-04-29 23:46 36.10537 -115.04563 3874 ft 101 kts 302°
2026-04-29 23:46 36.10873 -115.05321 3876 ft 100 kts 301°
2026-04-29 23:47 36.11196 -115.06073 3871 ft 98 kts 301°
2026-04-29 23:47 36.11512 -115.06812 3878 ft 96 kts 301°
2026-04-29 23:47 36.11832 -115.07537 3876 ft 96 kts 302°
2026-04-29 23:47 36.12166 -115.08251 3878 ft 96 kts 310°
2026-04-29 23:48 36.12567 -115.08907 3880 ft 96 kts 309°
2026-04-29 23:48 36.12982 -115.09552 3876 ft 95 kts 311°
2026-04-29 23:48 36.13392 -115.10187 3865 ft 94 kts 311°
2026-04-29 23:48 36.13830 -115.10782 3792 ft 93 kts 314°
2026-04-29 23:49 36.14239 -115.11396 3704 ft 94 kts 312°
2026-04-29 23:49 36.14677 -115.12010 3555 ft 93 kts 314°
2026-04-29 23:49 36.15144 -115.12554 3433 ft 91 kts 318°
2026-04-29 23:49 36.15583 -115.13081 3331 ft 87 kts 317°
2026-04-29 23:50 36.16007 -115.13606 3208 ft 89 kts 316°
2026-04-29 23:50 36.16448 -115.14118 3130 ft 85 kts 319°
2026-04-29 23:50 36.17301 -115.15127 2915 ft 84 kts 312°
2026-04-29 23:51 36.17699 -115.15636 2869 ft 81 kts 316°
2026-04-29 23:51 36.18115 -115.16111 2796 ft 84 kts 316°
2026-04-29 23:51 36.18540 -115.16631 2731 ft 88 kts 310°
2026-04-29 23:51 36.18954 -115.17149 2662 ft 82 kts 313°
2026-04-29 23:52 36.19360 -115.17639 2534 ft 81 kts 314°
2026-04-29 23:52 36.19752 -115.18121 2397 ft 77 kts 309°
2026-04-29 23:52 36.20144 -115.18617 2303 ft 86 kts 312°
2026-04-29 23:52 36.20561 -115.19128 2194 ft 78 kts 312°
2026-04-29 23:53 36.20872 -115.19521 2186 ft 53 kts 316°
2026-04-29 23:53 36.21049 -115.19740 2194 ft 11 kts 313°
2026-04-29 23:53 36.21061 -115.19797 2194 ft 5 kts 243°
2026-04-29 23:53 36.21049 -115.19820 2194 ft 0 kts 236°
2026-04-29 23:54 36.21035 -115.19854 2195 ft 10 kts 245°
2026-04-29 23:54 36.21033 -115.19909 2196 ft 5 kts 262°
2026-04-29 23:54 36.20996 -115.19959 2196 ft 8 kts 237°
2026-04-29 23:55 36.21007 -115.20018 2197 ft 6 kts 294°
2026-04-29 23:55 36.20985 -115.20085 2199 ft 11 kts 231°
2026-04-29 23:55 36.20930 -115.20164 2202 ft 12 kts 227°
2026-04-29 23:55 36.20905 -115.20233 2203 ft 8 kts 295°
2026-04-29 23:56 36.20920 -115.20271 2204 ft 1 kts 308°
2026-04-29 23:56 36.20924 -115.20277 2205 ft 0 kts 315°